Regional Weather Roundup
Issued by NWS

Home | Current Version | Previous Version | Graphics & Text | Print | Product List | Glossary On
Versions: 1 2 3 4 5 6 7 8 9 10 11 12 13 14 15 16 17 18 19 20 21 22 23 24 25 26 27 28 29 30 31 32 33 34 35 36 37 38 39 40 41 42 43 44 45 46 47 48 49 50
000
ASUS43 KIND 231659
RWRIN

WEATHER ROUNDUP FOR INDIANA
NATIONAL WEATHER SERVICE INDIANAPOLIS IN
1200 PM EST TUE JAN 23 2018

NOTE: "FAIR" INDICATES FEW OR NO CLOUDS BELOW 12,000 FEET WITH NO
SIGNIFICANT WEATHER AND/OR OBSTRUCTIONS TO VISIBILITY.

* - STATION DOES NOT REPORT WEATHER SUCH AS PRECIPITATION OR FOG.

+ - STATION NOT QUALITY CONTROLLED BY THE NATIONAL WEATHER SERVICE.
    USE DATA WITH CAUTION...ESPECIALLY DEWPOINT AND RELATIVE
    HUMIDITY OBSERVATIONS.

INZ001>003-010>013-019-020-231800-
NORTHWEST INDIANA

CITY           SKY/WX    TMP DP  RH WIND       PRES   REMARKS
GARY /AIRPORT/ CLOUDY    34  28  80 NW12G23   29.89R WCI  25
KNOX *+        CLOUDY    32  30  93 NW14G23   29.78R WCI  22
MONTICELLO +   CLOUDY    34  31  88 W17G26    29.80R WCI  23

$$

LMZ046-743>745-231800-
SOUTHERN LAKE MICHIGAN

STATION/POSITION TIME  TEMP    WIND        PRES    WAVE
                       AIR SEA DIR/SP/G            HT
                 (UTC) (F)     (DEG/KT/KT) (MB)    (FT)
BURNS HARBOR     1640   32     320/ 15/ 22 1009.1R
MICHIGAN CITY    1630   31     290/ 21/ 24   N/A

$$

INZ004-005-014>016-021>024-231800-
NORTH CENTRAL INDIANA

CITY           SKY/WX    TMP DP  RH WIND       PRES   REMARKS
ELKHART        FLURRIES  32  28  86 NW16G24   29.73R WCI  21
GOSHEN         LGT SNOW  33  30  88 W20G25    29.73R FOG     WCI  21
PERU/GRISSOM   CLOUDY    34  34 100 W16       29.76R WCI  23
SOUTH BEND     MIX PCPN  31  28  89 NW16      29.76R VSB 1   WCI  20

$$

INZ006>009-017-018-025>027-231800-
NORTHEAST INDIANA

CITY           SKY/WX    TMP DP  RH WIND       PRES   REMARKS
FORT WAYNE     LGT SNOW  36  34  92 W20       29.72R FOG     WCI  25
KENDALLVILLE + LGT SNOW  33  32  96 W9G23     29.69R WCI  25

$$

INZ028-029-035-036-043>045-051>053-231800-
WEST CENTRAL INDIANA

CITY           SKY/WX    TMP DP  RH WIND       PRES   REMARKS
GREENCASTLE +  CLOUDY    34  34 100 W7G16     29.86R FOG     WCI  28
LAFAYETTE      CLOUDY    35  30  82 NW17G26   29.83R WCI  25
TERRE HAUTE    LGT RAIN  37  34  89 W13       29.89R FOG     WCI  29

$$

INZ030>032-037>040-046>048-054>057-064-065-231800-
CENTRAL INDIANA

CITY           SKY/WX    TMP DP  RH WIND       PRES   REMARKS
ANDERSON       CLOUDY    36  30  80 W12       29.80R WCI  27
COLUMBUS       CLOUDY    36  32  87 SW13      29.88R FOG     WCI  27
GREENWOOD *+   CLOUDY    37  34  90 W13G21    29.84R WCI  29
INDIANAPOLIS   DRIZZLE   35  34  96 W16       29.84R FOG     WCI  25
-EAGLE CREEK   CLOUDY    36  33  89 W13G18    29.82R WCI  27
MT COMFORT *+  CLOUDY    34  34 100 SW15      29.82S WCI  24
SHELBYVILLE    CLOUDY    37  33  85 W17       29.83R WCI  27

$$

INZ033-034-041-042-049-050-058-059-231800-
EAST CENTRAL INDIANA

CITY           SKY/WX    TMP DP  RH WIND       PRES   REMARKS
MUNCIE         CLOUDY    37  32  82 W17G25    29.77R WCI  27
RICHMOND +     CLOUDY    34  32  93 W22G29    29.80R WCI  22

$$

INZ060-061-067>069-081>083-085>088-231800-
SOUTHWEST INDIANA

CITY           SKY/WX    TMP DP  RH WIND       PRES   REMARKS
EVANSVILLE     CLOUDY    38  32  79 W14G22    30.00R WCI  30
HUNTINGBURG +  CLOUDY    38  32  79 W22G30    29.97R WCI  27

$$

INZ062-063-066-070>080-084-089>092-231800-
SOUTH CENTRAL AND SOUTHEAST INDIANA

CITY           SKY/WX    TMP DP  RH WIND       PRES   REMARKS
BLOOMINGTON    CLOUDY    36  34  92 W8G18     29.88R FOG     WCI  30
FRENCH LICK *+ CLOUDY    36  32  87 W10G22    29.94R WCI  28

$$




USA.gov is the U.S. government's official web portal to all federal, state and local government web resources and services.